Regional Weather Roundup
Issued by NWS Mt. Holly, NJ

Current Version | Previous Version | Text Only | Print | Product List | Glossary On
Versions: 1 2 3 4 5 6 7 8 9 10 11 12 13 14 15 16 17 18 19 20 21 22 23 24 25 26 27 28 29 30 31 32 33 34 35 36 37 38 39 40 41 42 43 44 45 46 47 48 49 50
000
ASUS41 KPHI 270510
RWRPHI

REGIONAL WEATHER ROUNDUP
NATIONAL WEATHER SERVICE MOUNT HOLLY NJ
1200 AM EST TUE JAN 27 2015

NOTE:  "FAIR" INDICATES FEW OR NO CLOUDS BELOW 12,000 FEET WITH NO
SIGNIFICANT WEATHER AND/OR OBSTRUCTIONS TO VISIBILITY.

 * = STATION DOES NOT REPORT PRECIPITATION (E.G. RAIN, SNOW, ETC.)
        OR FOG.

NJZ015>026-270600-
SOUTHERN NEW JERSEY

CITY           SKY/WX    TMP DP  RH WIND       PRES   REMARKS
POMONA         CLOUDY    29  24  82 N18       29.62S WCI  16
RIO GRANDE*    CLOUDY    30  23  74 N16G23    29.61F WCI  19
MILLVILLE      FLURRIES  30  23  75 N20       29.65R WCI  17
WRIGHTSTOWN    FLURRIES  27  21  80 N17       29.64F WCI  14
MOUNT HOLLY    CLOUDY    27  20  75 N14G25    29.68F WCI  16
TRENTON        FLURRIES  26  18  71 N15G24    29.69S WCI  14

$$
NJZ001>014-270600-
NORTHERN NEW JERSEY

CITY           SKY/WX    TMP DP  RH WIND       PRES   REMARKS
SUSSEX         CLOUDY    22  14  71 NE14G23   29.73F WCI   9
ANDOVER*         N/A     20  15  81 NE10G21   29.72F WCI   9
MORRISTOWN     LGT SNOW  25  18  74 N13G21    29.71F WCI  13
NEWARK         LGT SNOW  23  20  88 N18G26    29.70F VSB 1   WCI   9
TETERBORO      SNOW      23  18  81 N10G23    29.70F VSB 1/2 WCI  12
CALDWELL       LGT SNOW  22  18  85 NE12G17   29.71F FOG     WCI  10
SOMERVILLE     CLOUDY    26  16  65 N8        29.70F WCI  18
ALLAIRE*       CLOUDY    27  19  74 N18G28    29.63F WCI  13
TOMS RIVER*    CLOUDY    27  21  80 N16G24    29.64F WCI  14

$$
PAZ043-044-047-054-055-060>062-066>071-270600-
EASTERN PENNSYLVANIA

CITY           SKY/WX    TMP DP  RH WIND       PRES   REMARKS
PHILADELPHIA   CLOUDY    29  21  72 N17G23    29.71S WCI  17
NORTH PHILA    CLOUDY    29  18  63 NE20G26   29.72R WCI  16
BLUE BELL      CLOUDY    30  21  69 N5        29.70S WCI  25
DOYLESTOWN     CLOUDY    23  18  81 N10       29.70S WCI  12
POTTSTOWN      CLOUDY    24  17  74 N8        29.73F WCI  15
LANCASTER      CLOUDY    25  18  74 NE9       29.73F WCI  15
COATESVILLE    CLOUDY    25  21  86 N13G22    29.69F WCI  13
READING        CLOUDY    26  18  71 N9        29.74F WCI  17
ALLENTOWN      CLOUDY    25  16  68 NE15      29.74F WCI  13
MOUNT POCONO   CLOUDY    19  13  77 NE13G18   29.65F WCI   6
HAZLETON       CLOUDY    23  18  80 N6        29.71F WCI  16
WILKES BARRE   MOCLDY    22  14  71 NE7       29.74F WCI  13

$$
DEZALL-MDZ008-012-015-019-020-270600-
DELAWARE AND EASTERN MARYLAND

CITY           SKY/WX    TMP DP  RH WIND       PRES   REMARKS
WILMINGTON     CLOUDY    28  22  78 N12G21    29.71S WCI  18
DOVER          CLOUDY    29  28  97 N16G25    29.67F WCI  17
GEORGETOWN     CLOUDY    32  26  78 N9G23     29.64F WCI  24
EASTON         CLOUDY    31  29  94 N14G20    29.72F WCI  21
PATUXENT       CLOUDY    30  26  85 N14       29.69S WCI  19
OCEAN CITY     CLOUDY    34  30  85 N20G33    29.60S WCI  23
WALLOPS ISLAND CLOUDY    32  31  96 N12G23    29.61R WCI  23
CAMBRIDGE      CLOUDY    32  28  86 CALM      29.67F
SALISBURY      CLOUDY    34  28  79 N13       29.64R WCI  25

$$
PAZ001-021-NYZ056-072-MDZ011-DCZ001-270600-
OTHER NEARBY LOCATIONS

CITY           SKY/WX    TMP DP  RH WIND       PRES   REMARKS
HARRISBURG     FLURRIES  25  22  88 NW9       29.76F WCI  15
STATE COLLEGE  CLOUDY    22  19  89 N3        29.78F
WILLIAMSPORT   FLURRIES  24  19  81 W7        29.81F WCI  16
BINGHAMTON     CLOUDY    16  12  84 N10       29.75F WCI   4
NEW YORK CITY  LGT SNOW  25  19  78 N12G23    29.71F VSB 3/4 WCI  14
BALTIMORE      LGT SNOW  26  22  84 N9G17     29.74S FOG     WCI  17
WASHINGTON DC  LGT SNOW  30  23  75 NW20G25   29.76S WCI  17

$$


USA.gov is the U.S. government's official web portal to all federal, state and local government web resources and services.